Location: Newark
(49.1939°N, 0.8136°E)
Time: 00:20:19
(UTC+00:00)

Envisat - Pass Details

Date: 21 November 2019
Orbit: 764 x 766 km, 98.1° (Epoch: 10 December)

Event Time Altitude Azimuth Distance (km) Brightness Sun altitude
Rises 06:23:26 0° 18° (NNE) 3,244 6.2 -8.5°
Reaches altitude 10° 06:25:51 10° 25° (NNE) 2,313 5.6 -8.1°
Maximum altitude 06:30:44 44° 98° (E) 1,048 4.4 -7.4°
Drops below altitude 10° 06:35:34 10° 170° (S) 2,296 5.9 -6.7°
Sets 06:37:57 0° 177° (S) 3,217 6.6 -6.3°
